Погода в Кайруане

Тунис     35°40′18″N   10°05′39″E
темп.,
°C
ветер,
м/с
пор.,
м/с
влажн.,
%
обл.,
%
осадки,
мм/ч
давл.,
гПа
погр.,
м
25 июля, вс
вс2501:00+27ююз47370 0.0 1013147
04:00+26ююз46441 0.0 101296
07:00+28ююз57400 0.0 1012278
10:00+36ююз67212 0.0 1012918
13:00+41ююв77130 0.0 10101826
16:00+42ююв77110 0.0 10091927
19:00+38юв912160 0.0 1009481
22:00+31ююв59310 0.0 1012274
26 июля, пн
пн2601:00+28ю484214 0.0 1013179
04:00+26ю46530 0.0 1012100
07:00+29ю46450 0.0 1013244
10:00+36ю66210 0.0 1013925
13:00+40ююв66140 0.0 10112008
16:00+41юв87120 0.0 10102778
19:00+35юв911220 0.0 1011665
22:00+29ю35421 0.0 1015176
27 июля, вт
вт2701:00+27ю3348100 0.0 101557
04:00+25ю33581 0.0 101447
07:00+26ю236181 0.0 1016224
10:00+32ююв443570 0.0 10161003
13:00+38юв561739 0.0 10142018
16:00+38юв87134 0.0 10131967
19:00+34юв78175 0.0 1014605
22:00+28ююв34304 0.0 101683
28 июля, ср
ср2801:00+26ююз34440 0.0 101661
04:00+24ююз33500 0.0 101537
07:00+27ююз35440 0.0 1015259
10:00+33ю56270 0.0 10151037
13:00+37ююв55190 0.0 10141871
16:00+39юв43140 0.0 10132330
19:00+36юв79150 0.0 1013313
22:00+28ю46340 0.0 1015117
29 июля, чт
чт2901:00+26ююз45430 0.0 101567
04:00+25ююз34410 0.0 101332
07:00+28ююз35310 0.0 1014162
10:00+36ююз67120 0.0 10151005
13:00+40ю77100 0.0 10131754
16:00+41ю76100 0.0 10112070
19:00+38ююв710130 0.0 1011225
22:00+32ю59260 0.0 1013145